Regional Weather Roundup
Issued by NWS

Home | Current Version | Previous Version | Graphics & Text | Print | Product List | Glossary On
Versions: 1 2 3 4 5 6 7 8 9 10 11 12 13 14 15 16 17 18 19 20 21 22 23 24 25 26 27 28 29 30 31 32 33 34 35 36 37 38 39 40 41 42 43 44 45 46 47 48 49 50
000
ASUS45 KCYS 221510
RWRWY

WYOMING REGIONAL WEATHER ROUNDUP
NATIONAL WEATHER SERVICE CHEYENNE WY
900 AM MDT SUN APR 22 2018

NOTE:  "FAIR" INDICATES FEW OR NO CLOUDS BELOW 12,000 FEET
WITH NO SIGNIFICANT WEATHER AND/OR OBSTRUCTIONS TO VISIBILITY.

WYZ001-221600-
YELLOWSTONE NATIONAL PARK

CITY           SKY/WX    TMP DP  RH WIND       PRES   REMARKS
LK YELLOWSTONE   N/A     37  25  61 CALM      30.24F
W YELLOWSTONE  NOT AVBL

$$
WYZ002>013-054>058-071-098>099-221600-
NORTHERN WYOMING

CITY           SKY/WX    TMP DP  RH WIND       PRES   REMARKS
JACKSON        FAIR      40  26  57 CALM      30.22F
CODY           FAIR      47  28  47 NE7       30.16S
GREYBULL       FAIR      49  33  54 VRB5      30.13S
WORLAND        FAIR      51  31  46 NW3       30.14S
SHERIDAN       FAIR      51  25  36 E3        30.19S
BUFFALO        FAIR      49  23  36 MISG      30.20F
GILLETTE       FAIR      46  38  73 N5        30.17S
HULETT         FAIR      46  36  66 CALM      30.18F
NEWCASTLE      FAIR      45  34  65 CALM      30.19S

$$
WYZ014>020-022>026-101>103-221600-
CENTRAL WYOMING

CITY           SKY/WX    TMP DP  RH WIND       PRES   REMARKS
BIG PINEY      FAIR      42  22  44 CALM      30.24F
PINEDALE       FAIR      41  27  56 W5        30.24F
DUBOIS         FAIR      43  23  45 CALM      30.20S
LANDER         FAIR      51  28  41 CALM      30.14S
RIVERTON       FAIR      47  31  53 E7        30.15S
CASPER         FAIR      46  35  65 N6        30.21S
DOUGLAS        FAIR      41  41 100 NW8       30.19F

$$
WYZ021-027>030-104>119-221600-
SOUTHERN WYOMING

CITY           SKY/WX    TMP DP  RH WIND       PRES   REMARKS
EVANSTON       FAIR      47  28  47 S6        30.24S
KEMMERER       FAIR      45  28  53 CALM      30.25F
FORT BRIDGER   FAIR      53  29  39 CALM      30.27S
ROCK SPRINGS   FAIR      48  28  46 SW10      30.23F
DIXON          FAIR      45  34  64 SE6       30.26F
RAWLINS          N/A    N/A N/A N/A MISG      30.22S
SARATOGA       FAIR      46  34  61 S6        30.24F
LARAMIE        FAIR      41  36  82 CALM      30.21S
CHEYENNE       FAIR      49  38  65 NE7       30.17S
TORRINGTON     FOG       33  33 100 CALM      30.20R VSB 1/4
PINE BLUFFS    CLOUDY    36  36 100 MISG      30.18S VSB 1

$$



USA.gov is the U.S. government's official web portal to all federal, state and local government web resources and services.